Starlink 32501

operational
NORAD ID: 61890 Int'l Des: 2024-204 Owner: SPXS Country: US Constellation: starlink
LEOCIRCULAR

About Starlink 32501

Description loading...

Live Position

Loading 3D Globe...

Upcoming Passes

Altitude History

Altitude vs Time

uPlot chart will show altitude changes over time

Two-Line Element Set

1 61890U 24204S 25302.92440887 -.00000459 00000-0 -33761-5 0 9995
2 61890 53.1620 14.6950 0001235 86.5584 273.5558 15.30186218 55072
Epoch: Oct 29, 2025 • Age: 30 hours

Current Status

Altitude 480.9 km
Velocity 7.63 km/s
Sub-Earth Point 52.74°N, 4.92°E
Launch Date Nov 9, 2024
Age 0.9 years
Type internet

Technical Details

Classification Payload
Mass 730.00 kg
Dry Mass 700.00 kg
Total Mass 730.00 kg
Length 0.30 m
Diameter 4.10 m
Span 29.00 m
Shape Box + pan
Manufacturer SPXS
Bus Type Starlink V2M
Phase Status In Orbit
Owner/State SPXS/US

Large Constellations

Loading constellations...